This is the latest recevied weather packets stored in our database for station/object HK6RM-19. If no packets are shown the sender has not sent any weather packets the latest 10 day(s).
| Time | Temp. | Humidity | Pressure | Rain* | Wind** | Luminosity | Snow |
|---|---|---|---|---|---|---|---|
| 1788021032 | 20.56° C | 73% | 1013 hPa | 0 mm | - | - | - |
| 1788020191 | 20.56° C | 73% | 1014 hPa | 0 mm | - | - | - |
| 1788019351 | 19.44° C | 77% | 1014 hPa | 0 mm | - | - | - |
| 1788018510 | 19.44° C | 77% | 1014 hPa | 0 mm | - | - | - |
| 1788017670 | 19.44° C | 77% | 1014 hPa | 0 mm | - | - | - |
| 1788016829 | 19.44° C | 77% | 1014 hPa | 0 mm | - | - | - |
| 1788015989 | 19.44° C | 77% | 1014 hPa | 0 mm | - | - | - |
| 1788015148 | 18.89° C | 88% | 1014 hPa | 0 mm | - | - | - |
| 1788014308 | 18.33° C | 81% | 1014 hPa | 0 mm | - | - | - |
| 1788013467 | 18.33° C | 79% | 1015 hPa | 0 mm | - | - | - |
| 1788012627 | 18.33° C | 79% | 1015 hPa | 0 mm | - | - | - |
| 1788011786 | 18.33° C | 77% | 1015 hPa | 0 mm | - | - | - |
| 1788010946 | 17.22° C | 79% | 1015 hPa | 0 mm | - | - | - |
| 1788010105 | 17.22° C | 79% | 1015 hPa | 0 mm | - | - | - |
| 1788009265 | 16.67° C | 81% | 1015 hPa | 0 mm | - | - | - |
| 1788008425 | 16.67° C | 82% | 1015 hPa | 0 mm | - | - | - |
| 1788007584 | 16.67° C | 82% | 1015 hPa | 0 mm | - | - | - |
| 1788006744 | 15° C | 82% | 1016 hPa | 0 mm | - | - | - |
| 1788005903 | 15.56° C | 82% | 1016 hPa | 0 mm | - | - | - |
| 1788005063 | 15.56° C | 82% | 1016 hPa | 0 mm | - | - | - |
| 1788004222 | 15.56° C | 82% | 1016 hPa | 0 mm | - | - | - |
| 1788003382 | 11.11° C | 75% | 1016 hPa | 0 mm | - | - | - |
| 1788002542 | 11.67° C | 75% | 1016 hPa | 0 mm | - | - | - |
| 1788001701 | 11.67° C | 75% | 1016 hPa | 0 mm | - | - | - |
| 1788000860 | 11.67° C | 75% | 1016 hPa | 0 mm | - | - | - |
* Rain latest hour (hover to see other rain measurements)
** Current wind speed in m/s (hover to see current wind gust speed)